Baltimore, MD

9:04 AM EDT on August 29, 2016 (GMT -0400)
Baltimore-Washington International

Weather History for KBWI - March, 2013

Change the Weather History Date:

Sunday, March 17, 2013

  Actual Average Record
Temperature  
Mean Temperature 38 °F 44 °F  
Max Temperature 41 °F 54 °F 85 °F (1945)
Min Temperature 34 °F 34 °F 15 °F (1900)
Degree Days  
Heating Degree Days 27 21  
Month to date heating degree days 410 403  
Since 1 July heating degree days 3702 3998  
Cooling Degree Days 0 0  
Month to date cooling degree days 0 0  
Year to date cooling degree days 0 0  
Moisture  
Dew Point 27 °F    
Average Humidity 69    
Maximum Humidity 89    
Minimum Humidity 48    
Precipitation  
Precipitation 0.00 in 0.13 in 1.29 in (1968)
Month to date precipitation 1.39 2.04  
Year to date precipitation 6.98 7.99  
Snow  
Snow 0.00 in 0.10 in 5.00 in (1931)
Month to date snowfall T 1.5  
Since 1 July snowfall 4.8 19.7  
Snow Depth 0.00 in    
Sea Level Pressure  
Sea Level Pressure 30.13 in    
Wind  
Wind Speed 7 mph (NNE)    
Max Wind Speed 16 mph    
Max Gust Speed 25 mph    
Visibility 9 miles    
Events      
T = Trace of Precipitation, MM = Missing Value Source: NWS Daily Summary

Daily Weather History Graph

Daily Weather History Graph

Search for Another Location

Airport or City:

Trip Planner

Search our weather history database for the weather conditions in past years. The results will help you decide how hot, cold, wet, or windy it might be!

Date:

Astronomy

Mar. 17, 2013 Rise Set
Actual Time 7:14 AM EDT 7:15 PM EDT
Civil Twilight 6:47 AM EDT 7:42 PM EDT
Nautical Twilight 6:16 AM EDT 8:13 PM EDT
Astronomical Twilight 5:45 AM EDT 8:45 PM EDT
Moon 10:27 AM EDT (3/17) 12:19 AM EDT (3/17)
Length of Visible Light 12h 54m
Length of Day
12h 01m
Waxing Crescent, 31% of the Moon is Illuminated
Mar 17
Waxing Crescent
Mar 19
First Quarter
Mar 27
Full
Apr 3
Last Quarter
Apr 10
New

Hourly Weather History & Observations

Time (EDT) Temp. Windchill Dew Point Humidity Pressure Visibility Wind Dir Wind Speed Gust Speed Precip Events Conditions
12:54 AM 37.0 °F 32.4 °F 30.9 °F 79% 29.92 in 7.0 mi North 5.8 mph - N/A   Scattered Clouds
1:54 AM 36.0 °F 31.1 °F 30.9 °F 82% 29.94 in 6.0 mi North 5.8 mph - N/A   Haze
2:54 AM 35.1 °F 31.0 °F 30.9 °F 85% 29.96 in 6.0 mi NW 4.6 mph - N/A   Scattered Clouds
3:54 AM 34.0 °F 29.8 °F 30.9 °F 89% 29.98 in 6.0 mi NW 4.6 mph - N/A   Scattered Clouds
4:54 AM 34.0 °F 27.2 °F 30.0 °F 85% 29.99 in 7.0 mi North 8.1 mph - N/A   Scattered Clouds
5:54 AM 36.0 °F 28.5 °F 28.9 °F 76% 30.02 in 8.0 mi NE 10.4 mph - N/A   Mostly Cloudy
6:54 AM 37.0 °F 30.4 °F 28.9 °F 73% 30.05 in 9.0 mi NE 9.2 mph - N/A   Mostly Cloudy
7:54 AM 37.0 °F 29.8 °F 28.9 °F 73% 30.07 in 8.0 mi NNE 10.4 mph - N/A   Overcast
8:54 AM 37.9 °F 32.1 °F 28.0 °F 68% 30.11 in 10.0 mi North 8.1 mph - N/A   Overcast
9:54 AM 39.9 °F 32.9 °F 27.0 °F 60% 30.13 in 10.0 mi North 11.5 mph - N/A   Overcast
10:54 AM 39.9 °F 32.9 °F 27.0 °F 60% 30.16 in 10.0 mi North 11.5 mph 18.4 mph N/A   Overcast
11:54 AM 39.0 °F 33.4 °F 27.0 °F 62% 30.16 in 10.0 mi North 8.1 mph - N/A   Overcast
12:18 PM 39.2 °F 33.6 °F 26.6 °F 61% 30.16 in 10.0 mi NNW 8.1 mph - N/A   Overcast
12:54 PM 37.9 °F 32.7 °F 27.0 °F 65% 30.19 in 10.0 mi NW 6.9 mph - N/A   Overcast
1:54 PM 37.9 °F 32.7 °F 27.0 °F 65% 30.17 in 10.0 mi Variable 6.9 mph - N/A   Overcast
2:51 PM 39.2 °F 35.9 °F 26.6 °F 61% 30.15 in 10.0 mi North 4.6 mph - N/A   Overcast
2:54 PM 39.9 °F 36.7 °F 26.1 °F 58% 30.16 in 10.0 mi NE 4.6 mph - N/A   Overcast
3:54 PM 39.0 °F - 26.1 °F 60% 30.17 in 10.0 mi Calm Calm - N/A   Overcast
4:54 PM 39.9 °F 36.7 °F 26.1 °F 58% 30.17 in 10.0 mi Variable 4.6 mph - N/A   Overcast
5:54 PM 41.0 °F - 25.0 °F 53% 30.19 in 10.0 mi Calm Calm - N/A   Overcast
6:54 PM 39.0 °F 35.7 °F 27.0 °F 62% 30.21 in 10.0 mi SE 4.6 mph - N/A   Overcast
7:54 PM 37.9 °F 35.5 °F 27.0 °F 65% 30.22 in 10.0 mi SSE 3.5 mph - N/A   Overcast
8:54 PM 37.9 °F - 28.0 °F 68% 30.25 in 10.0 mi Calm Calm - N/A   Overcast
9:54 PM 37.9 °F 32.7 °F 25.0 °F 60% 30.26 in 10.0 mi ENE 6.9 mph - N/A   Overcast
10:54 PM 37.9 °F 31.5 °F 21.0 °F 51% 30.27 in 10.0 mi ENE 9.2 mph - N/A   Overcast
11:54 PM 37.0 °F 30.4 °F 19.9 °F 50% 30.27 in 10.0 mi ENE 9.2 mph - N/A   Overcast